Flag for U.S.A. Weather past 2 weeks in Vancouver, Washington, U.S.A.

Now
66 °F

Partly sunny.


Feels Like: 66 °F
Forecast: 57 / 69 °F
Wind: 6 mph from West

Location: Vancouver - Pearson Airpark

Current Time: Jul 24, 2014 at 1:37:51 PM

Latest Report: Jul 24, 2014 at 12:53 PM


Visibility: 10 mi

Pressure: 30.25 "Hg

Humidity: 61%

Dew point: 52 °F

Location of VancouverLocation

Historic Weather in Vancouver — Graph

°F

Vancouver temperature yesterday

Maximum temperature yesterday: 65 °F (at 2:53 AM)
Minimum temperature yesterday: 59 °F (at 9:53 AM)
Average temperature yesterday: 62 °F

Past Weeks' High & Low Weather Summary

 TemperatureHumidityPressure
High92 °F (Jul 12, 4:53 PM)93% (Jul 22, 7:01 AM)30.26 "Hg (Jul 22, 7:01 AM)
Low54 °F (Jul 18, 5:53 AM)27% (Jul 12, 4:53 PM)29.83 "Hg (Jul 10, 5:53 PM)
Average69 °F63%30.02 "Hg
* Reported Jul 9 11:53 AM — Jul 24 11:53 AM, Vancouver, Weather by CustomWeather, © 2014

Note: Actual official high and low records may vary slightly from our data, if they occured in-between our weather recording intervals... More about our weather records

Advertising

Vancouver weather history for previous 24 hours

 ConditionsComfort  
Time TempWeatherWind HumidityBarometerVisibility
11:53 AM
Jul 24
65 °FMostly cloudy.3 mph63%30.26 "Hg10 mi
10:53 AM63 °FOvercast.5 mph70%30.26 "Hg10 mi
9:53 AM61 °FMostly cloudy.6 mph75%30.25 "Hg10 mi
8:53 AM60 °FMore clouds than sun.8 mph75%30.23 "Hg10 mi
7:53 AM60 °FOvercast.12 mph75%30.21 "Hg10 mi
6:53 AM59 °FMostly cloudy.9 mph78%30.19 "Hg10 mi
5:53 AM59 °FOvercast.6 mph75%30.17 "Hg10 mi
4:53 AM59 °FMostly cloudy.6 mph75%30.16 "Hg10 mi
3:53 AM59 °FPartly cloudy.5 mph75%30.16 "Hg10 mi
2:53 AM59 °FMostly cloudy.8 mph75%30.15 "Hg10 mi
1:53 AM59 °FLight rain. Mostly cloudy.5 mph78%30.15 "Hg10 mi
12:53 AM60 °FOvercast.9 mph69%30.15 "Hg10 mi
11:53 PM
Jul 23
60 °FPassing clouds.8 mph69%30.14 "Hg10 mi
10:53 PM61 °FOvercast.5 mph67%30.14 "Hg10 mi
9:53 PM62 °FPassing clouds.5 mph62%30.14 "Hg10 mi
8:53 PM62 °FScattered clouds.5 mph67%30.12 "Hg10 mi
7:53 PM63 °FPassing clouds.5 mph68%30.11 "Hg10 mi
6:53 PM63 °FPassing clouds.8 mph70%30.10 "Hg10 mi
5:53 PM65 °FScattered clouds.6 mph63%30.09 "Hg10 mi
4:53 PM64 °FPartly sunny.5 mph70%30.10 "Hg10 mi
4:04 PM60 °FLight rain. Cloudy.5 mph78%30.10 "Hg2 mi
3:53 PM63 °FHeavy rain. Mostly cloudy.9 mph75%30.11 "Hg2 mi
2:53 PM64 °FPartly sunny.7 mph78%30.10 "Hg10 mi
1:53 PM60 °FLight rain. Fog.6 mph86%30.10 "Hg6 mi
1:04 PM60 °FLight rain. Mostly cloudy.6 mph90%30.09 "Hg10 mi
Weather by CustomWeather, © 2014

See weather overviewHow to use our weather pages